Date String (YYYY-MM-DD hh:mm:ss) UTC,Instrument flags,absolute air pressure of the measurement (hPa),sample flow rate (lpm),inlet stack bypass flow (lpm),air temperature of the measurement (°C),ambient temperature measured by the external sensor (°C),aerosol sample conditioner tube jacket temperature (°C),OPC LED temperature (°C),internal box temperature (°C),relative humidity of the measurement (%),span deviation,mass concentration of particles derived from Lorenz-Mie calculation of OPC scattering (μg/m³),mass concentration of particles derived from Lorenz-Mie calculation of OPC scattering (μg/m³),mass concentration of particles derived from Lorenz-Mie calculation of OPC scattering (μg/m³)
DateTimeUTC,F1_M11,P_M11,Q1_M11,Q2_M11,T1_M11,T2_M11,T3_M11,T4_M11,T5_M11,U1_M11,ZSPAN_M11,X2_M11,X0_M11,X1_M11
2024-02-19 06:00:00,SystemResetWarning,0823.0,5.00,000.00,018.5,018.0,000.0,026.9,020.3,14.8,0000.0,0000.45,0000.68,0000.36
2024-02-19 06:01:00,SystemResetWarning,0822.6,5.00,000.00,018.5,018.0,000.0,026.9,020.3,14.7,0000.0,0000.45,0000.69,0000.36
2024-02-19 06:02:00,SystemResetWarning,0822.7,5.01,000.00,018.5,018.0,000.0,026.9,020.2,14.7,0000.0,0000.45,0000.69,0000.36
2024-02-19 06:03:00,SystemResetWarning,0822.9,5.01,000.00,018.5,018.0,000.0,026.9,020.3,14.4,0000.0,0000.43,0000.64,0000.35
2024-02-19 06:04:00,SystemResetWarning,0822.8,4.99,000.00,018.5,018.0,000.0,026.9,020.3,14.2,0000.0,0000.41,0000.61,0000.34
2024-02-19 06:05:00,SystemResetWarning,0823.1,4.99,000.00,018.5,018.0,000.0,026.9,020.2,14.3,0000.0,0000.40,0000.59,0000.33
2024-02-19 06:06:00,SystemResetWarning,0822.8,4.99,000.00,018.5,018.0,000.0,026.9,020.3,13.9,0000.0,0000.40,0000.59,0000.33
2024-02-19 06:07:00,SystemResetWarning,0822.9,5.01,000.00,018.5,018.0,000.0,026.9,020.3,13.8,0000.0,0000.40,0000.60,0000.33
2024-02-19 06:08:00,SystemResetWarning,0822.7,5.01,000.00,018.5,018.0,000.0,026.9,020.2,13.7,0000.0,0000.42,0000.68,0000.32
2024-02-19 06:09:00,SystemResetWarning,0822.7,4.99,000.00,018.5,018.0,000.0,026.9,020.2,13.6,0000.0,0000.43,0000.70,0000.33
2024-02-19 06:10:00,SystemResetWarning,0822.5,4.99,000.00,018.5,018.0,000.0,026.9,020.2,13.7,0000.0,0000.42,0000.66,0000.33
2024-02-19 06:11:00,SystemResetWarning,0822.6,5.00,000.00,018.5,018.0,000.0,026.9,020.2,13.4,0000.0,0000.43,0000.70,0000.33
2024-02-19 06:12:00,SystemResetWarning,0823.0,5.00,000.00,018.5,018.0,000.0,026.9,020.2,13.2,0000.0,0000.42,0000.66,0000.33
2024-02-19 06:13:00,SystemResetWarning,0822.9,5.00,000.00,018.5,018.0,000.0,026.9,020.2,13.3,0000.0,0000.42,0000.66,0000.33
2024-02-19 06:14:00,SystemResetWarning,0823.0,5.01,000.00,018.5,018.0,000.0,026.9,020.2,13.3,0000.0,0000.44,0000.69,0000.34
2024-02-19 06:15:00,SystemResetWarning,0822.9,5.00,000.00,018.5,018.0,000.0,026.9,020.2,13.5,0000.0,0000.46,0000.73,0000.33
2024-02-19 06:16:00,SystemResetWarning,0823.0,5.00,000.00,018.5,018.0,000.0,026.9,020.2,13.6,0000.0,0000.46,0000.75,0000.33
2024-02-19 06:17:00,SystemResetWarning,0822.6,5.00,000.00,018.5,018.0,000.0,026.9,020.2,13.3,0000.0,0000.47,0001.18,0000.33
2024-02-19 06:18:00,SystemResetWarning,0822.7,5.00,000.00,018.5,018.0,000.0,026.9,020.2,13.2,0000.0,0000.47,0002.41,0000.33
2024-02-19 06:19:00,SystemResetWarning,0823.0,4.99,000.00,018.5,018.0,000.0,026.9,020.2,13.3,0000.0,0000.46,0002.36,0000.33
2024-02-19 06:20:00,SystemResetWarning,0822.6,5.00,000.00,018.5,018.0,000.0,026.9,020.2,13.4,0000.0,0000.42,0002.27,0000.32
2024-02-19 06:21:00,SystemResetWarning,0822.8,5.00,000.00,018.5,018.0,000.0,026.9,020.2,13.5,0000.0,0000.42,0002.28,0000.31
2024-02-19 06:22:00,SystemResetWarning,0822.6,4.99,000.00,018.5,018.0,000.0,026.9,020.2,13.9,0000.0,0000.44,0002.35,0000.30
2024-02-19 06:23:00,SystemResetWarning,0822.7,5.00,000.00,018.5,018.0,000.0,026.9,020.2,14.5,0000.0,0000.46,0002.40,0000.30
2024-02-19 06:24:00,SystemResetWarning,0823.2,5.00,000.00,018.5,018.0,000.0,026.9,020.2,13.7,0000.0,0000.46,0002.40,0000.30
2024-02-19 06:25:00,SystemResetWarning,0823.1,5.01,000.00,018.5,018.0,000.0,026.9,020.2,13.9,0000.0,0000.48,0002.80,0000.30
2024-02-19 06:26:00,SystemResetWarning,0823.1,5.01,000.00,018.5,018.0,000.0,026.9,020.2,14.5,0000.0,0000.48,0003.36,0000.30
2024-02-19 06:27:00,SystemResetWarning,0823.2,5.00,000.00,018.5,018.0,000.0,026.9,020.2,14.5,0000.0,0000.51,0003.45,0000.29
2024-02-19 06:28:00,SystemResetWarning,0823.0,5.00,000.00,018.5,018.0,000.0,026.9,020.3,14.2,0000.0,0000.51,0003.16,0000.30
2024-02-19 06:29:00,SystemResetWarning,0822.5,4.99,000.00,018.5,018.0,000.0,026.9,020.3,13.6,0000.0,0000.53,0002.28,0000.29
2024-02-19 06:30:00,SystemResetWarning,0822.3,5.00,000.00,018.5,018.0,000.0,026.9,020.3,13.7,0000.0,0000.55,0002.59,0000.29
2024-02-19 06:31:00,SystemResetWarning,0822.8,5.00,000.00,018.5,018.0,000.0,026.9,020.2,14.3,0000.0,0000.55,0002.61,0000.30
2024-02-19 06:32:00,SystemResetWarning,0822.7,4.99,000.00,018.5,018.0,000.0,026.9,020.2,14.1,0000.0,0000.55,0002.59,0000.30
2024-02-19 06:33:00,SystemResetWarning,0822.8,5.00,000.00,018.5,018.0,000.0,026.9,020.2,13.5,0000.0,0000.54,0004.18,0000.31
2024-02-19 06:34:00,SystemResetWarning,0822.3,5.01,000.00,018.5,018.0,000.0,026.9,020.2,13.6,0000.0,0000.53,0005.05,0000.32
2024-02-19 06:35:00,SystemResetWarning,0822.7,4.99,000.00,018.5,018.0,000.0,026.9,020.2,13.4,0000.0,0000.53,0005.03,0000.33
2024-02-19 06:36:00,SystemResetWarning,0822.5,5.00,000.00,018.5,018.0,000.0,026.9,020.2,13.2,0000.0,0000.50,0004.60,0000.33
2024-02-19 06:37:00,SystemResetWarning,0822.8,4.99,000.00,018.5,018.0,000.0,026.9,020.2,13.2,0000.0,0000.50,0004.05,0000.33
2024-02-19 06:38:00,SystemResetWarning,0822.7,4.99,000.00,018.5,018.0,000.0,026.9,020.2,13.1,0000.0,0000.48,0003.98,0000.34
2024-02-19 06:39:00,SystemResetWarning,0822.8,5.00,000.00,018.5,018.0,000.0,026.9,020.2,13.3,0000.0,0000.47,0003.85,0000.33
2024-02-19 06:40:00,SystemResetWarning,0822.6,5.01,000.00,018.5,018.0,000.0,026.9,020.2,13.5,0000.0,0000.46,0003.55,0000.34
2024-02-19 06:41:00,SystemResetWarning,0822.8,5.01,000.00,018.5,018.0,000.0,026.9,020.2,13.7,0000.0,0000.45,0003.28,0000.34
2024-02-19 06:42:00,SystemResetWarning,0822.9,5.00,000.00,018.5,018.0,000.0,026.9,020.2,13.7,0000.0,0000.47,0003.51,0000.34
2024-02-19 06:43:00,SystemResetWarning,0822.6,5.00,000.00,018.5,017.9,000.0,026.9,020.2,13.7,0000.0,0000.48,0003.55,0000.33
2024-02-19 06:44:00,SystemResetWarning,0823.0,4.99,000.00,018.5,017.9,000.0,026.9,020.1,13.9,0000.0,0000.46,0002.26,0000.33
2024-02-19 06:45:00,SystemResetWarning,0822.8,4.99,000.00,018.5,017.9,000.0,026.9,020.1,13.4,0000.0,0000.45,0001.04,0000.31
2024-02-19 06:46:00,SystemResetWarning,0822.7,5.00,000.00,018.5,017.9,000.0,026.9,020.1,13.3,0000.0,0000.44,0001.02,0000.30
2024-02-19 06:47:00,SystemResetWarning,0822.8,4.99,000.00,018.5,017.9,000.0,026.9,020.1,13.3,0000.0,0000.45,0001.15,0000.30
2024-02-19 06:48:00,SystemResetWarning,0822.9,5.00,000.00,018.5,017.9,000.0,026.9,020.1,13.6,0000.0,0000.46,0001.65,0000.29
2024-02-19 06:49:00,SystemResetWarning,0822.8,5.00,000.00,018.5,017.9,000.0,026.9,020.1,13.3,0000.0,0000.46,0001.68,0000.29
2024-02-19 06:50:00,SystemResetWarning,0822.8,5.01,000.00,018.5,017.9,000.0,026.8,020.1,13.1,0000.0,0000.46,0001.93,0000.29
2024-02-19 06:51:00,SystemResetWarning,0822.6,5.01,000.00,018.5,017.9,000.0,026.9,020.2,13.0,0000.0,0000.45,0001.91,0000.29
2024-02-19 06:52:00,SystemResetWarning,0822.6,4.99,000.00,018.5,017.9,000.0,026.9,020.2,12.9,0000.0,0000.47,0001.94,0000.29
2024-02-19 06:53:00,SystemResetWarning,0822.6,4.99,000.00,018.5,017.9,000.0,026.9,020.2,12.9,0000.0,0000.49,0001.77,0000.30
2024-02-19 06:54:00,SystemResetWarning,0822.7,5.00,000.00,018.5,018.0,000.0,026.9,020.2,12.9,0000.0,0000.50,0001.74,0000.30
2024-02-19 06:55:00,SystemResetWarning,0822.7,5.00,000.00,018.5,018.0,000.0,026.9,020.2,12.9,0000.0,0000.51,0003.03,0000.30
2024-02-19 06:56:00,SystemResetWarning,0822.8,5.01,000.00,018.5,018.0,000.0,026.9,020.2,12.8,0000.0,0000.53,0003.18,0000.31
2024-02-19 06:57:00,SystemResetWarning,0823.1,5.00,000.00,018.5,018.0,000.0,026.9,020.2,12.7,0000.0,0000.54,0003.21,0000.32
2024-02-19 06:58:00,SystemResetWarning,0822.7,5.00,000.00,018.5,018.0,000.0,026.9,020.2,12.8,0000.0,0000.52,0003.13,0000.31
2024-02-19 06:59:00,SystemResetWarning,0823.0,5.00,000.00,018.5,018.0,000.0,026.9,020.2,12.7,0000.0,0000.52,0002.65,0000.31
